| time (UTC) | temp C | wind direction | speed KPH | gust KPH | rain 1hr cm | rain 24hr cm | rain mn cm | humidity % | barometer mb |
| 20260906190821 | 20 | 148 | 3.2 | 8.0 | 0.00 | 0.25 | 0.25 | 71 | 1013.4 |
| 20260906190321 | 20 | 148 | 1.6 | 8.0 | 0.00 | 0.25 | 0.25 | 70 | 1013.4 |
| 20260906185822 | 20 | 98 | 3.2 | 11.3 | 0.00 | 0.25 | 0.25 | 70 | 1013.4 |
| 20260906185321 | 20 | 133 | 3.2 | 4.8 | 0.00 | 0.25 | 0.25 | 70 | 1013.3 |
| 20260906184821 | 20 | 59 | 1.6 | 9.7 | 0.00 | 0.25 | 0.25 | 69 | 1013.3 |
| 20260906183821 | 20 | 153 | 4.8 | 8.0 | 0.00 | 0.25 | 0.25 | 69 | 1013.5 |
| 20260906183322 | 20 | 169 | 3.2 | 8.0 | 0.00 | 0.25 | 0.25 | 69 | 1013.5 |
| 20260906182822 | 20 | 151 | 4.8 | 11.3 | 0.00 | 0.25 | 0.25 | 69 | 1013.6 |
| 20260906182321 | 20 | 163 | 0.0 | 3.2 | 0.00 | 0.25 | 0.25 | 70 | 1013.7 |
| 20260906181822 | 20 | 155 | 1.6 | 8.0 | 0.00 | 0.25 | 0.25 | 69 | 1013.7 |
| 20260906181321 | 20 | 159 | 3.2 | 11.3 | 0.00 | 0.25 | 0.25 | 69 | 1013.7 |
| 20260906180821 | 20 | 144 | 3.2 | 4.8 | 0.00 | 0.25 | 0.25 | 69 | 1013.7 |
| 20260906175822 | 20 | 169 | 4.8 | 9.7 | 0.00 | 0.25 | 0.25 | 69 | 1013.8 |
| 20260906175321 | 20 | 147 | 3.2 | 9.7 | 0.00 | 0.25 | 0.25 | 68 | 1013.8 |
| 20260906174821 | 20 | 122 | 4.8 | 11.3 | 0.00 | 0.25 | 0.25 | 68 | 1013.8 |
| 20260906174321 | 20 | 168 | 3.2 | 11.3 | 0.00 | 0.25 | 0.25 | 68 | 1013.8 |
| 20260906173822 | 20 | 137 | 6.4 | 14.5 | 0.00 | 0.25 | 0.25 | 67 | 1013.7 |
| 20260906173321 | 20 | 144 | 8.0 | 14.5 | 0.00 | 0.25 | 0.25 | 68 | 1013.7 |
| 20260906172321 | 20 | 172 | 4.8 | 11.3 | 0.00 | 0.25 | 0.25 | 68 | 1013.7 |
| 20260906171821 | 20 | 162 | 3.2 | 8.0 | 0.00 | 0.25 | 0.25 | 69 | 1013.7 |
| 20260906170821 | 20 | 160 | 4.8 | 11.3 | 0.00 | 0.25 | 0.25 | 69 | 1013.8 |
| 20260906170321 | 20 | 171 | 4.8 | 11.3 | 0.00 | 0.25 | 0.25 | 69 | 1013.8 |
| 20260906165821 | 20 | 171 | 4.8 | 14.5 | 0.00 | 0.25 | 0.25 | 69 | 1013.9 |
| 20260906165321 | 20 | 161 | 3.2 | 8.0 | 0.00 | 0.25 | 0.25 | 68 | 1014.0 |
| 20260906164321 | 20 | 174 | 3.2 | 8.0 | 0.00 | 0.25 | 0.25 | 68 | 1014.1 |
| 20260906163822 | 20 | 158 | 4.8 | 12.9 | 0.00 | 0.25 | 0.25 | 68 | 1014.0 |
| 20260906163320 | 20 | 160 | 6.4 | 16.1 | 0.00 | 0.25 | 0.25 | 68 | 1014.1 |
| 20260906162320 | 20 | 155 | 8.0 | 12.9 | 0.00 | 0.25 | 0.25 | 67 | 1014.4 |
| 20260906161821 | 20 | 176 | 6.4 | 16.1 | 0.00 | 0.25 | 0.25 | 67 | 1014.4 |
| 20260906161321 | 20 | 149 | 8.0 | 12.9 | 0.00 | 0.25 | 0.25 | 66 | 1014.4 |
| 20260906160321 | 20 | 162 | 4.8 | 11.3 | 0.00 | 0.25 | 0.25 | 66 | 1014.6 |
| 20260906155321 | 20 | 168 | 3.2 | 8.0 | 0.00 | 0.25 | 0.25 | 66 | 1014.7 |
| 20260906154822 | 20 | 173 | 4.8 | 12.9 | 0.00 | 0.25 | 0.25 | 66 | 1014.8 |
| 20260906154321 | 20 | 172 | 6.4 | 12.9 | 0.00 | 0.25 | 0.25 | 65 | 1014.7 |
| 20260906153320 | 20 | 153 | 8.0 | 14.5 | 0.00 | 0.25 | 0.25 | 66 | 1014.9 |
| 20260906152821 | 20 | 165 | 4.8 | 12.9 | 0.00 | 0.25 | 0.25 | 66 | 1015.1 |
| 20260906151821 | 20 | 158 | 4.8 | 8.0 | 0.00 | 0.25 | 0.25 | 65 | 1015.2 |
| 20260906151320 | 20 | 171 | 6.4 | 11.3 | 0.00 | 0.25 | 0.25 | 65 | 1015.3 |
| 20260906145822 | 20 | 172 | 8.0 | 14.5 | 0.00 | 0.25 | 0.25 | 63 | 1015.5 |
| 20260906145320 | 20 | 158 | 6.4 | 14.5 | 0.00 | 0.25 | 0.25 | 63 | 1015.6 |
| 20260906144322 | 20 | 195 | 6.4 | 14.5 | 0.00 | 0.25 | 0.25 | 61 | 1015.7 |
| 20260906143821 | 21 | 226 | 8.0 | 16.1 | 0.00 | 0.25 | 0.25 | 62 | 1015.8 |
| 20260906143320 | 21 | 184 | 9.7 | 16.1 | 0.00 | 0.25 | 0.25 | 63 | 1015.9 |
| 20260906141821 | 20 | 165 | 4.8 | 16.1 | 0.00 | 0.25 | 0.25 | 66 | 1016.0 |
| 20260906141321 | 20 | 168 | 8.0 | 16.1 | 0.00 | 0.25 | 0.25 | 66 | 1016.0 |
| 20260906140820 | 20 | 179 | 4.8 | 12.9 | 0.00 | 0.25 | 0.25 | 73 | 1016.1 |
| 20260906134822 | 19 | 112 | 4.8 | 14.5 | 0.00 | 0.25 | 0.25 | 76 | 1016.1 |
| 20260906133820 | 19 | 98 | 4.8 | 8.0 | 0.00 | 0.25 | 0.25 | 76 | 1016.3 |
| 20260906133321 | 20 | 107 | 6.4 | 12.9 | 0.00 | 0.25 | 0.25 | 76 | 1016.3 |
| 20260906132821 | 20 | 109 | 9.7 | 14.5 | 0.00 | 0.25 | 0.25 | 75 | 1016.3 |
| 20260906132321 | 19 | 102 | 6.4 | 12.9 | 0.00 | 0.25 | 0.25 | 77 | 1016.3 |
| 20260906131821 | 19 | 83 | 6.4 | 11.3 | 0.00 | 0.25 | 0.25 | 79 | 1016.5 |
| 20260906131321 | 18 | 97 | 4.8 | 14.5 | 0.00 | 0.25 | 0.25 | 78 | 1016.5 |
| 20260906130321 | 18 | 100 | 1.6 | 14.5 | 0.00 | 0.25 | 0.25 | 82 | 1016.8 |
| 20260906125820 | 17 | 80 | 3.2 | 9.7 | 0.00 | 0.25 | 0.25 | 83 | 1016.8 |
| 20260906125321 | 17 | 96 | 4.8 | 11.3 | 0.00 | 0.25 | 0.25 | 84 | 1016.8 |
| 20260906124822 | 17 | 93 | 3.2 | 9.7 | 0.00 | 0.25 | 0.25 | 85 | 1016.8 |
| 20260906124321 | 17 | 96 | 8.0 | 19.3 | 0.00 | 0.25 | 0.25 | 83 | 1016.9 |
| 20260906123822 | 17 | 137 | 4.8 | 12.9 | 0.00 | 0.25 | 0.25 | 83 | 1017.1 |
| 20260906123320 | 16 | 103 | 3.2 | 12.9 | 0.00 | 0.25 | 0.25 | 82 | 1017.1 |
| 20260906122820 | 16 | 97 | 6.4 | 12.9 | 0.00 | 0.25 | 0.25 | 82 | 1017.1 |
| 20260906121821 | 16 | 85 | 4.8 | 16.1 | 0.00 | 0.25 | 0.25 | 85 | 1017.2 |
| 20260906121322 | 16 | 74 | 6.4 | 11.3 | 0.00 | 0.25 | 0.25 | 86 | 1017.1 |
| 20260906120822 | 15 | 99 | 3.2 | 8.0 | 0.00 | 0.25 | 0.25 | 86 | 1017.1 |
| 20260906120321 | 15 | 77 | 3.2 | 9.7 | 0.00 | 0.25 | 0.25 | 88 | 1017.2 |
| 20260906115821 | 15 | 96 | 4.8 | 8.0 | 0.00 | 0.25 | 0.25 | 88 | 1017.3 |
| 20260906115321 | 15 | 85 | 4.8 | 11.3 | 0.03 | 0.25 | 0.25 | 90 | 1017.6 |
| 20260906114821 | 15 | 98 | 1.6 | 11.3 | 0.05 | 0.25 | 0.25 | 90 | 1017.8 |
| 20260906114320 | 15 | 90 | 4.8 | 11.3 | 0.10 | 0.25 | 0.25 | 89 | 1017.8 |
| 20260906113821 | 14 | 103 | 1.6 | 4.8 | 0.10 | 0.25 | 0.25 | 89 | 1017.8 |
| 20260906113322 | 14 | 90 | 3.2 | 8.0 | 0.10 | 0.25 | 0.25 | 90 | 1018.0 |
| 20260906112821 | 14 | 92 | 1.6 | 8.0 | 0.10 | 0.25 | 0.25 | 91 | 1018.1 |
| 20260906111821 | 14 | 82 | 1.6 | 8.0 | 0.13 | 0.25 | 0.25 | 91 | 1018.3 |
| 20260906110821 | 13 | 349 | 1.6 | 8.0 | 0.15 | 0.25 | 0.25 | 88 | 1018.4 |
| 20260906110321 | 13 | 86 | 1.6 | 8.0 | 0.15 | 0.25 | 0.25 | 88 | 1018.4 |
| 20260906105821 | 13 | 103 | 3.2 | 8.0 | 0.15 | 0.25 | 0.25 | 88 | 1018.5 |
| 20260906105321 | 13 | 199 | 4.8 | 11.3 | 0.13 | 0.23 | 0.23 | 88 | 1018.5 |
| 20260906104820 | 13 | 144 | 4.8 | 9.7 | 0.08 | 0.20 | 0.20 | 87 | 1018.7 |
| 20260906104320 | 13 | 167 | 3.2 | 14.5 | 0.05 | 0.15 | 0.15 | 87 | 1018.7 |
| 20260906103320 | 13 | 210 | 1.6 | 11.3 | 0.08 | 0.15 | 0.15 | 87 | 1018.8 |
| 20260906102821 | 13 | 195 | 4.8 | 11.3 | 0.08 | 0.15 | 0.15 | 86 | 1018.9 |
| 20260906102321 | 13 | 203 | 4.8 | 11.3 | 0.08 | 0.15 | 0.15 | 86 | 1018.9 |
| 20260906101321 | 13 | 224 | 8.0 | 12.9 | 0.05 | 0.13 | 0.13 | 84 | 1018.9 |
| 20260906100821 | 13 | 157 | 4.8 | 12.9 | 0.08 | 0.13 | 0.13 | 83 | 1018.9 |
| 20260906100321 | 13 | 228 | 4.8 | 14.5 | 0.08 | 0.13 | 0.13 | 83 | 1018.9 |
| 20260906095820 | 13 | 139 | 3.2 | 9.7 | 0.08 | 0.13 | 0.13 | 83 | 1018.9 |
| 20260906095320 | 13 | 130 | 3.2 | 8.0 | 0.10 | 0.13 | 0.13 | 83 | 1018.9 |
| 20260906094820 | 13 | 128 | 8.0 | 12.9 | 0.10 | 0.13 | 0.13 | 84 | 1019.0 |
| 20260906094320 | 14 | 187 | 4.8 | 14.5 | 0.13 | 0.13 | 0.13 | 85 | 1019.1 |
| 20260906093820 | 14 | 139 | 6.4 | 11.3 | 0.10 | 0.10 | 0.10 | 85 | 1019.2 |
| 20260906093320 | 14 | 195 | 9.7 | 19.3 | 0.08 | 0.08 | 0.08 | 84 | 1019.2 |
| 20260906092821 | 14 | 195 | 4.8 | 11.3 | 0.08 | 0.08 | 0.08 | 85 | 1019.3 |
| 20260906091822 | 14 | 238 | 8.0 | 14.5 | 0.05 | 0.05 | 0.05 | 84 | 1019.4 |
| 20260906091321 | 14 | 216 | 6.4 | 11.3 | 0.05 | 0.05 | 0.05 | 84 | 1019.4 |
| 20260906090820 | 14 | 252 | 4.8 | 8.0 | 0.05 | 0.05 | 0.05 | 84 | 1019.4 |
| 20260906085821 | 15 | 235 | 3.2 | 8.0 | 0.05 | 0.05 | 0.05 | 80 | 1019.3 |
| 20260906085320 | 15 | 195 | 3.2 | 8.0 | 0.03 | 0.03 | 0.03 | 80 | 1019.2 |
| 20260906084820 | 15 | 209 | 3.2 | 9.7 | 0.03 | 0.03 | 0.03 | 79 | 1019.1 |
| 20260906084320 | 15 | 245 | 4.8 | 11.3 | 0.00 | 0.00 | 0.00 | 80 | 1019.1 |
| 20260906083821 | 15 | 150 | 1.6 | 9.7 | 0.00 | 0.00 | 0.00 | 79 | 1019.1 |
| 20260906083321 | 15 | 218 | 1.6 | 3.2 | 0.00 | 0.00 | 0.00 | 78 | 1019.0 |
| 20260906082821 | 15 | 214 | 4.8 | 11.3 | 0.00 | 0.00 | 0.00 | 77 | 1019.1 |
| 20260906082320 | 15 | 123 | 0.0 | 3.2 | 0.00 | 0.00 | 0.00 | 79 | 1019.1 |
| 20260906081821 | 15 | 123 | 1.6 | 3.2 | 0.00 | 0.00 | 0.00 | 78 | 1019.1 |
| 20260906081320 | 15 | 123 | 0.0 | 3.2 | 0.00 | 0.00 | 0.00 | 79 | 1019.0 |
| 20260906080320 | 15 | 123 | 0.0 | 1.6 | 0.00 | 0.00 | 0.00 | 79 | 1019.1 |
| 20260906075820 | 15 | 123 | 0.0 | 1.6 | 0.00 | 0.00 | 0.00 | 80 | 1019.0 |
| 20260906075320 | 14 | 123 | 0.0 | 3.2 | 0.00 | 0.00 | 0.00 | 79 | 1019.1 |
| 20260906074321 | 14 | 123 | 0.0 | 0.0 | 0.00 | 0.00 | 0.00 | 80 | 1019.0 |
| 20260906073320 | 13 | 123 | 0.0 | 3.2 | 0.00 | 0.00 | 0.00 | 81 | 1019.1 |
| 20260906072820 | 13 | 123 | 0.0 | 3.2 | 0.00 | 0.00 | 0.00 | 81 | 1019.1 |
| 20260906072320 | 13 | 123 | 1.6 | 3.2 | 0.00 | 0.00 | 0.00 | 79 | 1019.1 |
| 20260906071821 | 14 | 120 | 1.6 | 4.8 | 0.00 | 0.00 | 0.00 | 79 | 1019.1 |
| 20260906071321 | 14 | 165 | 1.6 | 4.8 | 0.00 | 0.00 | 0.00 | 79 | 1019.2 |
| 20260906070820 | 13 | 300 | 1.6 | 4.8 | 0.00 | 0.00 | 0.00 | 80 | 1019.3 |
| 20260906070321 | 13 | 304 | 1.6 | 3.2 | 0.00 | 0.00 | 0.00 | 81 | 1019.4 |
| 20260906065820 | 13 | 304 | 0.0 | 3.2 | 0.00 | 0.00 | 0.00 | 81 | 1019.4 |
| 20260906064820 | 12 | 304 | 0.0 | 3.2 | 0.00 | 0.00 | 0.00 | 83 | 1019.4 |
| 20260906064320 | 12 | 304 | 0.0 | 3.2 | 0.00 | 0.00 | 0.00 | 85 | 1019.5 |
| 20260906063321 | 12 | 304 | 0.0 | 3.2 | 0.00 | 0.00 | 0.00 | 86 | 1019.5 |
| 20260906062322 | 12 | 304 | 1.6 | 3.2 | 0.00 | 0.00 | 0.00 | 87 | 1019.6 |
| 20260906061320 | 12 | 304 | 0.0 | 0.0 | 0.00 | 0.00 | 0.00 | 87 | 1019.8 |
| 20260906060821 | 12 | 304 | 1.6 | 4.8 | 0.00 | 0.00 | 0.00 | 87 | 1019.9 |
| 20260906060321 | 12 | 204 | 1.6 | 3.2 | 0.00 | 0.00 | 0.00 | 87 | 1020.0 |
| 20260906055820 | 12 | 204 | 0.0 | 1.6 | 0.00 | 0.00 | 0.00 | 87 | 1020.1 |
| 20260906055320 | 12 | 204 | 1.6 | 3.2 | 0.00 | 0.00 | 0.00 | 86 | 1020.2 |
| 20260906054821 | 12 | 204 | 0.0 | 1.6 | 0.00 | 0.00 | 0.00 | 86 | 1020.0 |
| 20260906054321 | 12 | 204 | 0.0 | 3.2 | 0.00 | 0.00 | 0.00 | 86 | 1020.0 |
| 20260906053820 | 12 | 204 | 1.6 | 3.2 | 0.00 | 0.00 | 0.00 | 86 | 1019.9 |
| 20260906053320 | 11 | 244 | 1.6 | 4.8 | 0.00 | 0.00 | 0.00 | 87 | 1019.9 |
| 20260906052820 | 11 | 123 | 1.6 | 3.2 | 0.00 | 0.00 | 0.00 | 88 | 1019.9 |
| 20260906052320 | 11 | 123 | 1.6 | 3.2 | 0.00 | 0.00 | 0.00 | 89 | 1019.9 |
| 20260906051820 | 11 | 123 | 1.6 | 4.8 | 0.00 | 0.00 | 0.00 | 89 | 1020.0 |
| 20260906051320 | 11 | 340 | 1.6 | 3.2 | 0.00 | 0.00 | 0.00 | 89 | 1020.0 |
| 20260906050820 | 11 | 340 | 3.2 | 3.2 | 0.00 | 0.00 | 0.00 | 90 | 1020.0 |
| 20260906050320 | 11 | 340 | 1.6 | 3.2 | 0.00 | 0.00 | 0.00 | 89 | 1020.1 |
| 20260906045821 | 11 | 340 | 1.6 | 3.2 | 0.00 | 0.00 | 0.00 | 89 | 1020.1 |
| 20260906045320 | 11 | 340 | 1.6 | 3.2 | 0.00 | 0.00 | 0.00 | 90 | 1020.2 |
| 20260906044320 | 10 | 340 | 1.6 | 3.2 | 0.00 | 0.00 | 0.00 | 90 | 1020.3 |
| 20260906043820 | 10 | 340 | 1.6 | 3.2 | 0.00 | 0.00 | 0.00 | 90 | 1020.3 |
| 20260906043320 | 10 | 340 | 1.6 | 3.2 | 0.00 | 0.00 | 0.00 | 90 | 1020.4 |
| 20260906041821 | 10 | 83 | 1.6 | 3.2 | 0.00 | 0.00 | 0.00 | 90 | 1020.5 |
| 20260906041320 | 11 | 83 | 0.0 | 1.6 | 0.00 | 0.00 | 0.00 | 90 | 1020.5 |
| 20260906040820 | 11 | 83 | 0.0 | 3.2 | 0.00 | 0.00 | 0.00 | 90 | 1020.6 |
| 20260906040320 | 11 | 83 | 0.0 | 1.6 | 0.00 | 0.00 | 0.00 | 90 | 1020.7 |
| 20260906035821 | 11 | 83 | 1.6 | 3.2 | 0.00 | 0.00 | 0.00 | 90 | 1020.7 |
| 20260906033822 | 11 | 83 | 0.0 | 1.6 | 0.00 | 0.00 | 0.00 | 90 | 1020.8 |
| 20260906033320 | 11 | 83 | 1.6 | 4.8 | 0.00 | 0.00 | 0.00 | 90 | 1020.9 |
| 20260906032821 | 11 | 82 | 3.2 | 4.8 | 0.00 | 0.00 | 0.00 | 90 | 1021.0 |
| 20260906031821 | 11 | 51 | 0.0 | 1.6 | 0.00 | 0.00 | 0.00 | 90 | 1021.2 |
| 20260906031321 | 11 | 51 | 1.6 | 3.2 | 0.00 | 0.00 | 0.00 | 90 | 1021.3 |
| 20260906030820 | 11 | 51 | 1.6 | 3.2 | 0.00 | 0.00 | 0.00 | 90 | 1021.3 |
| 20260906030320 | 11 | 39 | 3.2 | 4.8 | 0.00 | 0.00 | 0.00 | 90 | 1021.4 |
| 20260906025820 | 11 | 34 | 3.2 | 4.8 | 0.00 | 0.00 | 0.00 | 90 | 1021.5 |
| 20260906025320 | 11 | 15 | 1.6 | 4.8 | 0.00 | 0.00 | 0.00 | 91 | 1021.5 |
| 20260906024820 | 10 | 15 | 1.6 | 3.2 | 0.00 | 0.00 | 0.00 | 90 | 1021.6 |
| 20260906024320 | 10 | 15 | 0.0 | 3.2 | 0.00 | 0.00 | 0.00 | 89 | 1021.7 |
| 20260906023821 | 11 | 15 | 0.0 | 1.6 | 0.00 | 0.00 | 0.00 | 90 | 1021.8 |
| 20260906023320 | 11 | 15 | 0.0 | 3.2 | 0.00 | 0.00 | 0.00 | 90 | 1021.8 |
| 20260906022820 | 10 | 15 | 1.6 | 4.8 | 0.00 | 0.00 | 0.00 | 90 | 1021.9 |
| 20260906022321 | 10 | 252 | 3.2 | 3.2 | 0.00 | 0.00 | 0.00 | 90 | 1021.9 |
| 20260906021821 | 10 | 252 | 0.0 | 3.2 | 0.00 | 0.00 | 0.00 | 90 | 1021.9 |
| 20260906021320 | 10 | 252 | 1.6 | 1.6 | 0.00 | 0.00 | 0.00 | 90 | 1021.9 |
| 20260906020820 | 10 | 252 | 1.6 | 3.2 | 0.00 | 0.00 | 0.00 | 90 | 1021.9 |
| 20260906020320 | 10 | 252 | 1.6 | 3.2 | 0.00 | 0.00 | 0.00 | 90 | 1021.9 |
| 20260906015821 | 10 | 252 | 1.6 | 3.2 | 0.00 | 0.00 | 0.00 | 90 | 1021.9 |
| 20260906015320 | 10 | 252 | 0.0 | 1.6 | 0.00 | 0.00 | 0.00 | 90 | 1022.0 |
| 20260906014820 | 10 | 252 | 3.2 | 3.2 | 0.00 | 0.00 | 0.00 | 90 | 1022.1 |
| 20260906014320 | 10 | 252 | 1.6 | 3.2 | 0.00 | 0.00 | 0.00 | 90 | 1022.2 |
| 20260906013820 | 10 | 252 | 1.6 | 1.6 | 0.00 | 0.00 | 0.00 | 90 | 1022.3 |
| 20260906013320 | 10 | 252 | 0.0 | 0.0 | 0.00 | 0.00 | 0.00 | 90 | 1022.3 |
| 20260906012820 | 10 | 252 | 0.0 | 0.0 | 0.00 | 0.00 | 0.00 | 90 | 1022.4 |
| 20260906012320 | 10 | 252 | 0.0 | 0.0 | 0.00 | 0.00 | 0.00 | 90 | 1022.5 |
| 20260906011820 | 10 | 252 | 0.0 | 0.0 | 0.00 | 0.00 | 0.00 | 90 | 1022.5 |
| 20260906011320 | 10 | 252 | 0.0 | 0.0 | 0.00 | 0.00 | 0.00 | 89 | 1022.6 |
| 20260906010820 | 10 | 252 | 0.0 | 0.0 | 0.00 | 0.00 | 0.00 | 89 | 1022.6 |
| 20260906004820 | 10 | 252 | 1.6 | 1.6 | 0.00 | 0.00 | 0.00 | 89 | 1022.6 |
| 20260906004320 | 10 | 252 | 0.0 | 1.6 | 0.00 | 0.00 | 0.00 | 89 | 1022.7 |
| 20260906003821 | 10 | 252 | 1.6 | 3.2 | 0.00 | 0.00 | 0.00 | 89 | 1022.7 |
| 20260906002820 | 10 | 252 | 1.6 | 1.6 | 0.00 | 0.00 | 0.00 | 89 | 1022.8 |
| 20260906002319 | 10 | 252 | 1.6 | 3.2 | 0.00 | 0.00 | 0.00 | 89 | 1022.9 |
| 20260906000820 | 10 | 252 | 1.6 | 3.2 | 0.00 | 0.00 | 0.00 | 89 | 1023.0 |
| 20260906000320 | 10 | 252 | 3.2 | 3.2 | 0.00 | 0.00 | 0.00 | 88 | 1023.1 |
| 20260905235820 | 10 | 252 | 3.2 | 3.2 | 0.00 | 0.00 | 0.00 | 88 | 1023.1 |
| 20260905234820 | 10 | 252 | 1.6 | 3.2 | 0.00 | 0.00 | 0.00 | 88 | 1023.3 |
| 20260905234320 | 11 | 252 | 1.6 | 1.6 | 0.00 | 0.00 | 0.00 | 88 | 1023.3 |
| 20260905233820 | 11 | 252 | 1.6 | 1.6 | 0.00 | 0.00 | 0.00 | 87 | 1023.3 |
| 20260905232821 | 11 | 252 | 0.0 | 0.0 | 0.00 | 0.00 | 0.00 | 87 | 1023.5 |
| 20260905232319 | 11 | 252 | 0.0 | 1.6 | 0.00 | 0.00 | 0.00 | 87 | 1023.5 |
| 20260905231820 | 11 | 252 | 1.6 | 1.6 | 0.00 | 0.00 | 0.00 | 87 | 1023.5 |
| 20260905230903 | 11 | 252 | 1.6 | 1.6 | 0.00 | 0.00 | 0.00 | 87 | 1023.4 |
| 20260905230320 | 11 | 252 | 1.6 | 3.2 | 0.00 | 0.00 | 0.00 | 87 | 1023.4 |
| 20260905225820 | 11 | 252 | 1.6 | 3.2 | 0.00 | 0.00 | 0.00 | 86 | 1023.4 |
| 20260905225320 | 11 | 252 | 1.6 | 1.6 | 0.00 | 0.00 | 0.00 | 86 | 1023.3 |
| 20260905224822 | 11 | 252 | 1.6 | 1.6 | 0.00 | 0.00 | 0.00 | 86 | 1023.3 |
| 20260905224320 | 11 | 252 | 1.6 | 1.6 | 0.00 | 0.00 | 0.00 | 86 | 1023.3 |
| 20260905223820 | 11 | 252 | 1.6 | 1.6 | 0.00 | 0.00 | 0.00 | 86 | 1023.3 |
| 20260905223320 | 12 | 252 | 1.6 | 1.6 | 0.00 | 0.00 | 0.00 | 86 | 1023.2 |
| 20260905222820 | 12 | 252 | 1.6 | 1.6 | 0.00 | 0.00 | 0.00 | 86 | 1023.2 |
| 20260905222320 | 12 | 252 | 1.6 | 3.2 | 0.00 | 0.00 | 0.00 | 86 | 1023.3 |
| 20260905221821 | 12 | 252 | 1.6 | 1.6 | 0.00 | 0.00 | 0.00 | 86 | 1023.3 |
| 20260905221320 | 12 | 252 | 1.6 | 3.2 | 0.00 | 0.00 | 0.00 | 85 | 1023.3 |
| 20260905220820 | 12 | 252 | 0.0 | 3.2 | 0.00 | 0.00 | 0.00 | 86 | 1023.3 |
| 20260905220320 | 12 | 252 | 0.0 | 3.2 | 0.00 | 0.00 | 0.00 | 86 | 1023.3 |
| 20260905215821 | 12 | 252 | 0.0 | 3.2 | 0.00 | 0.00 | 0.00 | 85 | 1023.3 |
| 20260905215320 | 12 | 252 | 0.0 | 1.6 | 0.00 | 0.00 | 0.00 | 85 | 1023.3 |
| 20260905214821 | 12 | 252 | 1.6 | 1.6 | 0.00 | 0.00 | 0.00 | 85 | 1023.3 |
| 20260905214320 | 12 | 252 | 1.6 | 1.6 | 0.00 | 0.00 | 0.00 | 85 | 1023.4 |
| 20260905213819 | 12 | 252 | 1.6 | 1.6 | 0.00 | 0.00 | 0.00 | 84 | 1023.4 |
| 20260905213320 | 12 | 252 | 0.0 | 3.2 | 0.00 | 0.00 | 0.00 | 84 | 1023.5 |
| 20260905212821 | 12 | 252 | 0.0 | 1.6 | 0.00 | 0.00 | 0.00 | 84 | 1023.5 |
| 20260905212320 | 12 | 252 | 1.6 | 3.2 | 0.00 | 0.00 | 0.00 | 83 | 1023.5 |
| 20260905211822 | 12 | 252 | 0.0 | 3.2 | 0.00 | 0.00 | 0.00 | 83 | 1023.4 |
| 20260905210820 | 12 | 252 | 0.0 | 3.2 | 0.00 | 0.00 | 0.00 | 83 | 1023.6 |
| 20260905210320 | 12 | 252 | 0.0 | 1.6 | 0.00 | 0.00 | 0.00 | 82 | 1023.6 |
| 20260905205820 | 13 | 252 | 0.0 | 3.2 | 0.00 | 0.00 | 0.00 | 82 | 1023.6 |
| 20260905204820 | 13 | 252 | 1.6 | 3.2 | 0.00 | 0.00 | 0.00 | 82 | 1023.6 |
| 20260905204320 | 13 | 252 | 1.6 | 3.2 | 0.00 | 0.00 | 0.00 | 81 | 1023.6 |
| 20260905203320 | 13 | 252 | 0.0 | 3.2 | 0.00 | 0.00 | 0.00 | 81 | 1023.5 |
| 20260905202820 | 13 | 252 | 0.0 | 3.2 | 0.00 | 0.00 | 0.00 | 81 | 1023.4 |
| 20260905202320 | 13 | 252 | 1.6 | 3.2 | 0.00 | 0.00 | 0.00 | 81 | 1023.4 |
| 20260905201320 | 13 | 252 | 0.0 | 3.2 | 0.00 | 0.00 | 0.00 | 81 | 1023.4 |
| 20260905200820 | 13 | 252 | 0.0 | 1.6 | 0.00 | 0.00 | 0.00 | 81 | 1023.4 |
| 20260905200319 | 13 | 252 | 0.0 | 0.0 | 0.00 | 0.00 | 0.00 | 81 | 1023.3 |
| 20260905195820 | 13 | 252 | 0.0 | 0.0 | 0.00 | 0.00 | 0.00 | 81 | 1023.3 |
| 20260905195320 | 13 | 252 | 0.0 | 3.2 | 0.00 | 0.00 | 0.00 | 81 | 1023.3 |
| 20260905194820 | 13 | 252 | 0.0 | 1.6 | 0.00 | 0.00 | 0.00 | 80 | 1023.3 |
| 20260905193820 | 13 | 252 | 0.0 | 0.0 | 0.00 | 0.00 | 0.00 | 78 | 1023.3 |
| 20260905193320 | 13 | 252 | 0.0 | 3.2 | 0.00 | 0.00 | 0.00 | 78 | 1023.2 |
| 20260905191820 | 14 | 252 | 1.6 | 1.6 | 0.00 | 0.00 | 0.00 | 77 | 1022.9 |